[[{"header":{"parameterUnit":"m.s-1","parameterCategory":1,"la1":30.2991,"la2":30.254,"lo1":-89.0895,"lo2":-89.0444,"dy":0.0017,"dx":0.0017,"nx":28,"ny":28,"refTime":"2023-09-12T09:00:00:Z","depth":0,"parameterNumber":2,"parameterNumberName":"U-component_of_WINDS"},"data":[0,0,0,0,0,0,0,0,0,0,0,0,0,0,0,0,0,0,0,0,0,0,0,0,0,0,0,0,0,0,0,0,0,0,0,0,0,0,0,0,0,0,0,0,0,0,0,0,0,0,0,0,0,0,0,0,0,0,-1.2614,-1.261,0,-1.2278,-1.2274,-1.227,-1.2103,-1.2103,-1.2103,-1.2103,-1.1739,-1.173,-1.172,0,0,0,0,0,0,0,0,0,0,0,0,0,-1.3091,-1.3084,-1.2614,-1.261,-1.2606,-1.2279,-1.2274,-1.2269,-1.2103,-1.2103,-1.2103,-1.2103,-1.1742,-1.1731,-1.1719,0,0,0,0,0,0,0,0,0,0,0,0,0,-1.2832,-1.3081,-1.2615,-1.2484,-1.2469,-1.228,-1.2274,-1.2268,-1.2103,-1.2103,-1.2103,-1.2103,-1.1746,-1.1732,-1.1718,-1.1627,0,0,-1.1673,-1.1667,0,0,0,0,0,0,0,0,-1.2847,-1.2815,-1.2508,-1.2493,-1.2476,-1.2233,-1.2309,-1.2053,-1.2103,-1.2242,-1.2103,-1.2103,-1.1902,-1.1875,-1.1811,-1.161,-1.1594,-1.1672,-1.1663,-1.1657,-1.1653,0,0,0,0,0,0,0,-1.2866,-1.2828,-1.2481,-1.2503,-1.2484,-1.2435,-1.2399,-1.2259,-1.2075,-1.2229,-1.2217,-1.218,-1.1893,-1.1826,-1.1801,-1.1589,-1.1672,-1.1659,-1.165,-1.1645,-1.1291,-1.1291,0,0,0,0,0,0,-1.2907,-1.2845,-1.2491,-1.2471,-1.2666,-1.2427,-1.2386,-1.2311,-1.2076,-1.2041,-1.2181,-1.2174,-1.185,-1.1818,-1.1788,-1.1664,-1.1657,-1.1643,-1.1635,-1.1292,-1.1291,-1.129,0,0,0,0,0,0,-1.2918,-1.2878,-1.2505,-1.2654,-1.2603,-1.2419,-1.2335,-1.2304,-1.2236,-1.204,-1.2004,-1.2147,-1.1849,-1.1808,-1.1669,-1.1649,-1.1637,-1.1623,-1.1293,-1.1292,-1.1291,-1.1418,0,0,0,0,0,0,-1.2933,-1.2883,-1.2852,-1.2655,-1.2596,-1.2399,-1.2334,-1.2297,-1.2214,-1.2202,-1.1998,-1.1964,-1.1846,-1.1691,-1.1654,-1.1629,-1.1612,-1.1294,-1.1292,-1.1291,-1.1414,-1.1421,-1.1427,0,0,0,0,0,-1.2951,-1.2897,-1.2851,-1.2809,-1.2554,-1.2398,-1.2363,-1.2234,-1.2213,-1.2177,-1.205,-1.1971,-1.1658,-1.1679,-1.1635,-1.1605,-1.1294,-1.1293,-1.1291,-1.1411,-1.142,-1.1427,0,0,0,0,0,0,-1.309,-1.2869,-1.2815,-1.2698,-1.2569,-1.237,-1.2321,-1.2247,-1.2116,-1.211,-1.1948,-1.1903,-1.1778,-1.1676,-1.1704,-1.1502,-1.1467,-1.1457,-1.1574,-1.158,-1.1586,-1.1612,-1.16,0,0,0,0,0,-1.3108,-1.3006,-1.2816,-1.273,-1.2669,-1.2507,-1.2433,-1.2346,-1.2202,-1.2145,-1.2007,-1.1866,-1.1735,-1.1652,-1.152,-1.1399,-1.1349,-1.1356,-1.1363,-1.1369,-1.1361,-1.1285,-1.1285,-1.1286,-1.1286,-1.1286,0,0,-1.3142,-1.3009,-1.2953,-1.2755,-1.2644,-1.2536,-1.2461,-1.235,-1.2266,-1.2125,-1.1987,-1.1881,-1.1711,-1.158,-1.1515,-1.1492,-1.135,-1.1367,-1.1373,-1.1362,-1.1283,-1.1283,-1.1284,-1.1285,-1.1285,-1.1285,0,0,-1.3149,-1.3041,-1.2957,-1.2848,-1.2684,-1.2576,-1.2556,-1.2368,-1.2295,-1.2154,-1.2046,-1.1939,-1.1719,-1.1602,-1.1513,-1.1475,-1.1395,-1.1436,-1.1468,-1.1396,-1.1396,-1.1395,-1.1378,-1.1374,-1.1429,-1.1429,-1.143,0,-1.3211,-1.3051,-1.2921,-1.2816,-1.273,-1.2604,-1.2513,-1.2412,-1.2211,-1.2151,-1.2129,-1.1849,-1.1725,-1.1564,-1.1555,-1.1488,-1.1455,-1.1458,-1.1408,-1.1405,-1.1402,-1.1384,-1.1378,-1.1435,-1.1435,-1.1434,-1.1433,0,-1.3133,-1.3022,-1.2973,-1.2789,-1.2696,-1.2599,-1.2448,-1.2369,-1.2288,-1.2181,-1.2036,-1.1884,-1.1719,-1.1674,-1.1592,-1.1498,-1.1489,-1.144,-1.1401,-1.141,-1.139,-1.1382,-1.1444,-1.1442,-1.144,-1.1438,0,0,-1.3218,-1.2965,-1.2949,-1.2862,-1.2671,-1.2579,-1.2474,-1.2319,-1.2252,-1.2116,-1.2019,-1.1835,-1.1788,-1.1688,-1.1591,-1.1528,-1.1503,-1.1485,-1.1478,-1.1491,-1.1386,-1.1424,-1.1418,-1.145,-1.1448,-1.1447,-1.1399,0,-1.3197,-1.3011,-1.289,-1.2748,-1.2641,-1.2519,-1.2425,-1.2294,-1.219,-1.2078,-1.1959,-1.1831,-1.1781,-1.1719,-1.1652,-1.1521,-1.1479,-1.1523,-1.1352,-1.1347,-1.1398,-1.1408,-1.1447,-1.1411,-1.1391,-1.139,-1.1389,0,-1.3149,-1.3023,-1.2873,-1.2692,-1.2642,-1.2562,-1.2408,-1.2306,-1.2151,-1.2079,-1.1968,-1.187,-1.1746,-1.1719,-1.1542,-1.1574,-1.1496,-1.1421,-1.1416,-1.1394,-1.1368,-1.1383,-1.1396,-1.139,-1.1375,-1.1376,-1.1377,0,-1.3224,-1.3016,-1.2899,-1.2829,-1.2615,-1.2561,-1.2468,-1.2315,-1.2228,-1.2091,-1.2032,-1.188,-1.1796,-1.1677,-1.1538,-1.1532,-1.1373,-1.1336,-1.1304,-1.1308,-1.1275,-1.1279,-1.1274,-1.1229,-1.123,-1.123,-1.123,0,-1.3213,-1.3125,-1.293,-1.2858,-1.2753,-1.2611,-1.2509,-1.2405,-1.2269,-1.2169,-1.2051,-1.1957,-1.1781,-1.1663,-1.1552,-1.142,-1.1383,-1.1316,-1.1288,-1.1326,-1.1335,-1.1272,-1.127,-1.1228,-1.1228,-1.1229,-1.1229,0,-1.3279,-1.3146,-1.301,-1.282,-1.2769,-1.27,-1.2534,-1.2454,-1.2345,-1.2219,-1.218,-1.2005,-1.186,-1.1711,-1.1513,-1.1438,-1.1309,-1.127,-1.1364,-1.1347,-1.1324,-1.1327,-1.1276,-1.126,-1.123,-1.1231,-1.1231,0,-1.328,-1.321,-1.3014,-1.2942,-1.2854,-1.2738,-1.2651,-1.2506,-1.2419,-1.2237,-1.2178,-1.2027,-1.1898,-1.1672,-1.1521,-1.1368,-1.1323,-1.1316,-1.1299,-1.1339,-1.1319,-1.1325,-1.1315,-1.1322,-1.1323,-1.1324,-1.1324,0,-1.3295,-1.3233,-1.3115,-1.2974,-1.2874,-1.2754,-1.2628,-1.2574,-1.2403,-1.2309,-1.2164,-1.2065,-1.1865,-1.1714,-1.1543,-1.1438,-1.135,-1.1331,-1.1315,-1.1353,-1.1409,-1.1376,-1.1378,-1.1332,-1.1332,-1.1331,-1.1331,-1.133,-1.3326,-1.3258,-1.311,-1.2981,-1.2873,-1.2758,-1.2675,-1.2556,-1.2434,-1.2266,-1.2185,-1.2039,-1.188,-1.1643,-1.154,-1.1418,-1.1393,-1.1371,-1.1364,-1.1361,-1.1369,-1.1432,-1.1386,-1.1385,-1.1385,-1.1385,-1.1384,0,-1.3334,-1.3233,-1.3116,-1.2947,-1.2844,-1.2779,-1.2635,-1.2551,-1.2427,-1.229,-1.2167,-1.1997,-1.1849,-1.1688,-1.1529,-1.1461,-1.1417,-1.1424,-1.1426,-1.1402,-1.1402,-1.1431,-1.1463,-1.1463,-1.1463,-1.1463,-1.1463,-1.1463,-1.3325,-1.3206,-1.3125,-1.2947,-1.2844,-1.2705,-1.2629,-1.2519,-1.2409,-1.2228,-1.2107,-1.2006,-1.1856,-1.1685,-1.1544,-1.1499,-1.1444,-1.1463,-1.1406,-1.1409,-1.1403,-1.1397,-1.1423,-1.1453,-1.1453,-1.1416,-1.1416,-1.1416]},{"header":{"parameterUnit":"m.s-1","parameterCategory":1,"la1":30.2991,"la2":30.254,"lo1":-89.0895,"lo2":-89.0444,"dy":0.0017,"dx":0.0017,"nx":28,"ny":28,"refTime":"2023-09-12T09:00:00:Z","depth":0,"parameterNumber":3,"parameterNumberName":"V-component_of_WINDS"},"data":[0,0,0,0,0,0,0,0,0,0,0,0,0,0,0,0,0,0,0,0,0,0,0,0,0,0,0,0,0,0,0,0,0,0,0,0,0,0,0,0,0,0,0,0,0,0,0,0,0,0,0,0,0,0,0,0,0,0,-4.2307,-4.2309,0,-4.2565,-4.2568,-4.2571,-4.2628,-4.2626,-4.2624,-4.2622,-4.2879,-4.2888,-4.2896,0,0,0,0,0,0,0,0,0,0,0,0,0,-4.1853,-4.1861,-4.2306,-4.231,-4.2313,-4.2565,-4.2569,-4.2572,-4.2628,-4.2626,-4.2624,-4.2622,-4.2877,-4.2887,-4.2897,0,0,0,0,0,0,0,0,0,0,0,0,0,-4.2074,-4.1864,-4.2306,-4.2371,-4.238,-4.2564,-4.2569,-4.2573,-4.2629,-4.2626,-4.2623,-4.2621,-4.2873,-4.2886,-4.2898,-4.3033,0,0,-4.2938,-4.2943,0,0,0,0,0,0,0,0,-4.2062,-4.2091,-4.2359,-4.2367,-4.2377,-4.2562,-4.2503,-4.2727,-4.2629,-4.2534,-4.2622,-4.2619,-4.2775,-4.2796,-4.285,-4.3045,-4.3056,-4.2939,-4.2946,-4.2952,-4.2956,0,0,0,0,0,0,0,-4.2046,-4.208,-4.2409,-4.2362,-4.2374,-4.2386,-4.2414,-4.2546,-4.2667,-4.2542,-4.2547,-4.2577,-4.278,-4.2838,-4.2857,-4.306,-4.2938,-4.295,-4.2958,-4.2963,-4.3375,-4.3378,0,0,0,0,0,0,-4.2021,-4.2067,-4.24,-4.2416,-4.221,-4.2396,-4.2428,-4.2505,-4.2666,-4.2688,-4.2579,-4.2579,-4.2817,-4.2842,-4.2866,-4.3032,-4.2952,-4.2964,-4.2971,-4.3372,-4.3376,-4.338,0,0,0,0,0,0,-4.2011,-4.205,-4.239,-4.2243,-4.2288,-4.2407,-4.2493,-4.2512,-4.257,-4.2694,-4.2715,-4.2617,-4.2816,-4.2848,-4.2991,-4.3042,-4.297,-4.2981,-4.3368,-4.3373,-4.3378,-4.3365,0,0,0,0,0,0,-4.1997,-4.2046,-4.21,-4.2244,-4.2295,-4.2513,-4.2496,-4.2519,-4.2593,-4.2595,-4.2735,-4.2755,-4.2816,-4.2972,-4.3004,-4.3058,-4.2991,-4.3364,-4.3371,-4.3376,-4.3362,-4.3369,-4.3376,0,0,0,0,0,-4.1981,-4.2085,-4.2102,-4.2142,-4.2366,-4.2516,-4.2544,-4.2615,-4.2597,-4.265,-4.273,-4.275,-4.3032,-4.2986,-4.3023,-4.3081,-4.3361,-4.3369,-4.3376,-4.3359,-4.3368,-4.3376,0,0,0,0,0,0,-4.194,-4.2105,-4.2126,-4.228,-4.2384,-4.2525,-4.2595,-4.2623,-4.2732,-4.2729,-4.281,-4.2841,-4.2978,-4.3045,-4.2991,-4.3219,-4.3195,-4.321,-4.317,-4.318,-4.3186,-4.3165,-4.3002,0,0,0,0,0,-4.195,-4.2061,-4.2198,-4.232,-4.2371,-4.2474,-4.2542,-4.2589,-4.2698,-4.2741,-4.2831,-4.2934,-4.3046,-4.3117,-4.3227,-4.3373,-4.3402,-4.3432,-4.3439,-4.3444,-4.3454,-4.3534,-4.3547,-4.3404,-4.3404,-4.3404,0,0,-4.1969,-4.2073,-4.2137,-4.2315,-4.24,-4.251,-4.251,-4.2627,-4.2708,-4.2758,-4.2898,-4.2968,-4.3088,-4.3233,-4.3301,-4.3293,-4.3501,-4.3453,-4.3456,-4.3464,-4.3543,-4.3556,-4.3568,-4.3409,-4.3408,-4.3407,0,0,-4.206,-4.2152,-4.2263,-4.2349,-4.248,-4.2548,-4.2575,-4.2713,-4.2761,-4.2905,-4.2944,-4.3041,-4.3232,-4.3315,-4.3383,-4.3507,-4.3528,-4.3541,-4.3575,-4.3651,-4.3663,-4.3673,-4.3713,-4.3727,-4.3552,-4.3552,-4.3552,0,-4.2067,-4.2236,-4.2315,-4.2431,-4.2506,-4.256,-4.2671,-4.275,-4.2909,-4.2958,-4.2948,-4.3188,-4.3273,-4.3437,-4.3467,-4.3522,-4.3551,-4.3522,-4.3655,-4.3667,-4.3677,-4.3716,-4.3732,-4.3552,-4.3552,-4.3552,-4.3552,0,-4.2236,-4.2353,-4.2427,-4.2581,-4.2666,-4.2778,-4.2871,-4.2947,-4.2986,-4.3055,-4.3198,-4.3303,-4.3433,-4.3477,-4.3516,-4.3646,-4.3636,-4.364,-4.3617,-4.369,-4.3728,-4.3744,-4.3552,-4.3552,-4.3552,-4.3552,0,0,-4.2305,-4.2503,-4.2529,-4.2598,-4.2748,-4.2838,-4.2953,-4.3083,-4.3145,-4.3253,-4.3348,-4.351,-4.3514,-4.3591,-4.364,-4.3708,-4.3795,-4.3703,-4.3707,-4.3712,-4.394,-4.3933,-4.395,-4.3812,-4.3815,-4.3818,-4.3929,0,-4.241,-4.2618,-4.2693,-4.2863,-4.297,-4.3024,-4.3123,-4.3223,-4.3291,-4.3389,-4.3463,-4.3575,-4.3574,-4.362,-4.3691,-4.3769,-4.3841,-4.3763,-4.3897,-4.3901,-4.3861,-4.397,-4.3964,-4.4063,-4.3945,-4.3947,-4.3949,0,-4.2561,-4.2673,-4.2854,-4.2989,-4.3037,-4.3125,-4.325,-4.3346,-4.346,-4.3504,-4.359,-4.3635,-4.3754,-4.3727,-4.389,-4.3835,-4.3895,-4.3942,-4.3947,-4.3959,-4.3926,-4.398,-4.4097,-4.411,-4.3974,-4.3972,-4.397,0,-4.2587,-4.2784,-4.2918,-4.2977,-4.3139,-4.3198,-4.3268,-4.3381,-4.3454,-4.3563,-4.3611,-4.3732,-4.3797,-4.3888,-4.3963,-4.3938,-4.4117,-4.4098,-4.4153,-4.4151,-4.4185,-4.4181,-4.4308,-4.4231,-4.423,-4.423,-4.423,0,-4.2695,-4.2802,-4.2932,-4.3013,-4.3134,-4.3219,-4.3336,-4.3409,-4.3509,-4.3603,-4.3657,-4.3744,-4.384,-4.3938,-4.3998,-4.4121,-4.4151,-4.4187,-4.4201,-4.418,-4.4175,-4.4217,-4.421,-4.4234,-4.4233,-4.4233,-4.4232,0,-4.2743,-4.2835,-4.2983,-4.3125,-4.3164,-4.3246,-4.3367,-4.3446,-4.3518,-4.3636,-4.3668,-4.3779,-4.3898,-4.3983,-4.4136,-4.4176,-4.4307,-4.4322,-4.4268,-4.4274,-4.4323,-4.4316,-4.4478,-4.4503,-4.4412,-4.4413,-4.4414,0,-4.2803,-4.2888,-4.304,-4.3108,-4.3179,-4.3288,-4.3364,-4.3451,-4.3527,-4.3665,-4.3727,-4.385,-4.3953,-4.414,-4.4231,-4.4348,-4.4364,-4.4413,-4.4381,-4.4357,-4.436,-4.4352,-4.4359,-4.4416,-4.4416,-4.4417,-4.4417,0,-4.2899,-4.2941,-4.305,-4.3175,-4.3264,-4.3366,-4.3468,-4.3521,-4.3625,-4.3708,-4.3832,-4.3912,-4.4069,-4.4189,-4.4315,-4.4384,-4.4416,-4.4427,-4.4446,-4.4423,-4.4386,-4.4403,-4.4276,-4.4422,-4.4421,-4.4421,-4.4421,-4.4421,-4.2953,-4.303,-4.3149,-4.3268,-4.3355,-4.3449,-4.3531,-4.3613,-4.3719,-4.3854,-4.39,-4.4026,-4.4138,-4.4311,-4.4382,-4.448,-4.4478,-4.4505,-4.4511,-4.4515,-4.4512,-4.4375,-4.4504,-4.4504,-4.4504,-4.4504,-4.4504,0,-4.3048,-4.3128,-4.3238,-4.338,-4.3473,-4.3501,-4.3616,-4.369,-4.3802,-4.3905,-4.4006,-4.4147,-4.4264,-4.4366,-4.4487,-4.4546,-4.4564,-4.4574,-4.4569,-4.4583,-4.451,-4.448,-4.4558,-4.4558,-4.4558,-4.4558,-4.4558,-4.4558,-4.3109,-4.3239,-4.3295,-4.3468,-4.3547,-4.3674,-4.3736,-4.3823,-4.3905,-4.4061,-4.4159,-4.4227,-4.4328,-4.4457,-4.4565,-4.4592,-4.4632,-4.4638,-4.4667,-4.4596,-4.4589,-4.4582,-4.4555,-4.4647,-4.4647,-4.4733,-4.4734,-4.4734]}]]